Погода в Тан-Тане

Марокко     28°26′19″N   11°06′08″W
темп.,
°C
ветер,
м/с
пор.,
м/с
влажн.,
%
обл.,
%
осадки,
мм/ч
давл.,
гПа
погр.,
м
18 мая, вт
вт1801:00+18ссз489016 0.0 1015406
04:00+17сз4691100 0.0 1015233
07:00+17ссз3591100 0.0 1015129
10:00+20ссз5669100 0.0 1016590
13:00+22ссз776049 0.0 1016701
16:00+23ссз6560100 0.0 1015623
19:00+20сз5477100 0.0 1015534
22:00+19сз3383100 0.0 1016407
19 мая, ср
ср1901:00+18з3384100 0.0 1016312
04:00+18юз2387100 0.0 1014136
07:00+17юз2293100 0.0 101440
10:00+21юз4567100 0.0 1014408
13:00+27сз123985 0.0 1014580
16:00+30ссз973897 0.0 1011502
19:00+22ссз5563100 0.0 1013385
22:00+21сз227292 0.0 1014174
20 мая, чт
чт2001:00+19ссз1279100 0.0 1013100
04:00+18ссз118513 0.0 101227
07:00+18зсз22894 0.0 101113
10:00+25ююз12520 0.0 1012208
13:00+34сз43255 0.0 1011699
16:00+29сз774250 0.0 1010315
19:00+29зюз123818 0.0 1011393
22:00+27з2543100 0.2 1013128
21 мая, пт
пт2101:00+27ссв1243100 0.2 101216
04:00+24ссв3351100 0.0 101031
07:00+22с226388 0.0 101030
10:00+25зсз115422 0.0 1012215
13:00+34ссз43295 0.0 1011673
16:00+32сз883348 0.0 1008505
19:00+28ююз51043100 0.6 1014401
22:00+25св9135299 0.1 1012324
22 мая, сб
сб2201:00+25всв5114992 0.1 1010227
04:00+25св224413 0.0 100827
07:00+26св2237100 0.0 100814
10:00+28ссв134189 0.0 1010275
13:00+31ссз543697 0.0 1010705
16:00+28сз5445100 0.0 1008305
19:00+25ссз4553100 0.1 1008268
22:00+23ссз33617 0.1 1009121